Wind_Speed
13 13 12 10 10 8 6 4 2 3 4 3 1 3 3 2 4 5 7 6 5 6 4 7 11 8 4 5 10 9 7 5 3 2 4 10 21 23 19 22 22 21 20 20 20 20 21 20 18 18 18 18 18 18 18 17 17 17 18 17 17 17 16 16 15 14 14 14 14 14 14 13 13 13 13 13 12 12 12 12 12 12 12 13 13 13 12 12 12 12 12 13 14 14 14 15 15
13 12 12 10 9 7 3 3 3 3 5 2 2 3 4 5 5 6 7 6 5 7 8 9 10 6 3 7 9 8 9 10 8 8 10 21 24 20 22 23 22 21 20 20 20 20 21 20 19 18 18 19 19 19 19 19 19 18 18 18 17 18 17 16 15 15 15 15 14 14 14 13 14 14 13 13 12 12 11 11 12 12 12 13 13 13 13 13 12 12 12 13 14 14 14 15 14
13 12 12 10 6 3 1 3 3 2 3 1 4 5 5 5 5 6 7 6 8 11 11 10 9 5 5 9 5 4 7 8 12 13 14 23 20 19 24 22 22 20 19 20 19 20 20 20 19 19 19 19 18 19 19 19 19 18 18 18 18 17 17 16 16 15 15 15 14 14 14 14 14 14 13 12 12 11 11 11 12 12 12 12 13 13 13 13 12 11 12 13 14 14 14 14 14
12 11 11 9 5 2 2 3 3 4 1 2 4 6 4 5 7 7 7 8 11 12 11 11 7 2 4 9 5 7 9 8 13 15 14 19 19 23 26 22 21 19 19 19 18 19 20 20 20 19 19 19 18 19 19 19 18 18 18 18 18 17 17 17 16 15 15 15 14 14 14 14 14 13 12 12 12 11 11 11 12 12 12 12 13 13 13 13 12 12 13 13 13 13 12 12 13
11 10 8 4 2 1 2 3 3 4 1 3 3 6 5 6 8 9 9 10 11 12 11 9 7 4 5 8 3 6 9 9 14 16 16 18 23 27 25 23 21 19 19 18 18 19 20 21 20 19 18 18 18 18 18 18 18 18 18 18 17 17 17 16 16 15 15 15 14 15 15 14 13 13 12 11 12 12 11 11 11 11 11 12 13 13 13 13 12 12 12 13 13 12 12 12 13
11 9 5 2 3 2 3 3 3 1 4 3 3 7 6 8 9 10 11 11 10 11 10 7 8 9 8 9 6 7 6 9 14 16 18 22 26 26 24 23 20 19 19 18 18 19 21 20 19 19 18 18 18 18 18 18 18 17 17 17 16 16 16 16 15 15 14 15 15 15 15 14 13 12 12 11 12 12 11 11 11 11 11 12 13 13 13 12 12 12 12 13 13 13 12 12 12
11 8 4 4 3 2 4 2 0 2 5 2 3 7 8 9 9 11 12 11 10 11 9 7 9 9 8 7 8 9 6 10 15 17 21 24 26 26 24 22 20 20 19 18 18 19 21 20 19 18 18 18 17 18 17 17 17 16 16 16 16 15 15 15 15 15 14 14 14 15 14 14 13 12 12 12 12 12 12 11 11 11 11 12 12 13 12 12 12 12 12 13 13 13 12 12 12
10 6 3 4 3 3 4 1 1 3 4 2 4 7 9 11 10 11 12 11 10 10 9 8 9 7 7 6 6 8 7 13 17 20 24 26 27 26 23 21 21 20 19 18 18 20 20 19 18 18 18 17 17 17 17 17 16 16 16 15 15 15 15 15 14 14 15 14 14 15 15 14 14 13 13 12 12 12 13 12 12 12 11 11 12 13 12 12 12 11 12 13 13 13 12 12 13
8 4 2 3 3 3 3 0 3 2 4 4 5 7 9 11 11 11 11 10 9 10 11 11 6 5 9 7 8 7 8 14 20 24 26 26 26 24 22 21 21 20 19 18 18 20 19 18 17 17 17 16 16 17 16 16 16 16 16 15 15 15 15 14 14 14 15 15 15 15 14 14 14 14 14 13 13 13 13 13 13 13 12 12 12 13 13 12 12 11 11 12 13 12 12 12 12
6 4 2 3 4 2 2 2 3 4 5 4 5 8 9 9 10 10 10 10 10 10 11 9 4 6 10 10 9 6 10 18 23 25 27 26 25 23 22 20 20 21 20 19 19 19 19 19 17 17 16 16 16 16 16 16 16 16 16 16 15 15 15 15 15 14 15 15 15 15 14 14 14 14 14 14 14 13 13 13 13 14 13 13 12 13 13 12 12 11 11 12 12 11 11 12 11
4 3 4 3 3 1 1 3 3 5 6 5 7 8 8 9 9 9 9 10 10 10 11 8 7 10 11 9 6 7 15 22 25 27 28 26 24 23 22 20 20 20 20 19 19 19 19 18 17 17 15 15 16 15 16 16 16 16 16 16 15 15 15 15 15 14 14 15 15 14 14 14 14 14 14 14 14 13 13 13 13 14 13 12 12 13 13 12 11 10 10 11 11 11 11 11 12
3 2 4 3 2 2 2 2 3 5 7 6 8 8 7 9 9 8 9 10 10 10 10 8 8 10 10 8 5 10 19 23 26 28 28 25 23 23 22 20 20 20 19 19 19 19 19 18 18 17 15 15 15 15 16 16 16 15 16 15 15 15 15 15 14 14 15 15 15 14 14 14 14 14 14 14 14 13 12 13 13 13 12 12 12 13 13 12 11 10 10 10 10 10 10 11 11
3 2 4 3 2 2 2 1 4 5 6 6 8 9 8 9 8 9 9 10 10 10 10 8 8 9 8 9 8 12 18 25 27 27 28 25 23 22 21 20 20 20 19 18 18 19 19 18 18 17 15 15 16 15 15 15 16 15 15 15 14 14 15 15 14 14 15 15 14 14 14 14 14 14 14 14 13 13 12 13 13 13 13 12 12 12 12 12 11 10 10 10 11 11 11 11 11
4 2 4 3 3 2 3 1 4 4 6 8 8 9 8 6 6 7 8 10 9 7 9 8 8 9 8 9 8 10 17 27 28 27 27 23 22 22 20 20 20 20 19 17 18 18 18 17 17 17 16 15 16 16 15 15 15 15 15 14 14 14 14 14 14 14 14 14 14 14 14 14 14 13 13 13 13 12 12 12 12 12 13 12 12 12 12 12 11 11 11 11 11 11 12 11 11
4 3 4 3 3 3 2 1 3 3 6 9 9 10 8 4 5 6 6 8 8 8 9 9 7 5 8 11 9 12 21 29 29 28 26 22 22 21 20 20 19 19 18 17 17 17 17 16 16 16 16 15 16 15 16 16 15 15 14 14 13 14 14 14 14 13 13 14 14 14 14 14 13 13 12 12 12 12 12 12 12 12 12 13 13 13 12 11 11 11 11 11 12 11 11 11 10
4 4 3 3 4 2 2 2 1 2 6 10 11 11 9 6 7 6 4 4 8 8 7 8 6 2 6 11 13 21 28 31 30 28 26 23 22 20 20 19 19 19 17 17 17 16 16 16 16 16 15 15 15 15 15 16 15 15 14 14 13 13 13 13 13 13 13 13 13 13 13 13 12 12 12 12 12 11 11 11 12 11 11 12 12 12 11 10 9 10 11 11 11 11 11 11 9
4 4 4 4 3 1 2 1 2 2 6 10 11 11 10 9 8 5 6 5 8 9 6 6 5 2 4 10 20 29 32 32 31 29 27 24 22 21 21 19 19 18 17 17 16 16 15 15 16 15 15 14 14 15 15 15 15 15 13 13 13 13 13 13 13 12 12 12 12 12 12 11 11 10 10 11 11 10 11 11 11 10 10 11 11 11 10 9 9 9 10 10 10 10 10 10 9
4 4 5 4 1 2 3 4 5 2 5 10 11 11 9 10 10 7 8 8 9 9 6 7 7 6 8 16 26 32 32 32 31 30 28 25 22 21 21 20 19 19 18 17 16 16 15 15 15 15 15 14 14 13 14 14 14 14 13 13 12 12 12 12 12 11 11 11 10 10 9 9 9 9 9 10 10 10 10 10 10 9 9 10 10 9 8 8 8 8 9 10 9 9 8 7 7
6 4 5 3 1 4 4 4 4 3 3 7 10 11 8 9 11 9 9 10 11 10 9 9 10 11 13 20 28 32 33 32 31 30 28 26 24 22 21 20 20 20 19 17 17 17 16 16 15 15 15 15 14 13 13 14 14 14 13 13 12 12 12 11 11 10 10 9 9 8 8 9 9 9 9 9 9 9 8 9 9 8 8 8 8 7 7 7 7 8 8 8 7 7 7 5 4
7 5 5 1 3 3 3 2 3 4 3 4 9 10 8 9 10 9 9 10 12 10 10 11 11 14 16 20 26 31 32 31 30 30 28 27 25 23 21 21 20 20 19 18 18 17 16 16 16 16 16 15 14 13 13 13 13 13 12 12 12 11 11 10 9 9 9 8 8 7 8 8 8 8 8 8 8 7 7 8 8 8 7 7 7 7 6 7 7 7 7 8 7 7 6 5 4
6 7 5 2 2 2 3 3 5 5 3 2 8 9 9 9 9 9 9 9 10 9 10 12 13 17 18 21 24 29 30 30 30 29 29 27 26 24 21 21 20 19 19 18 18 18 17 17 17 16 16 15 14 13 13 13 13 12 12 11 11 10 10 9 9 8 8 8 7 7 7 7 7 7 7 6 6 6 6 6 7 7 6 6 6 5 4 5 6 6 6 7 6 5 5 5 4
5 8 7 2 2 2 4 3 4 5 3 1 7 9 8 8 9 9 10 7 2 5 11 11 15 19 20 22 24 27 27 28 29 29 28 27 26 25 22 21 20 20 19 18 18 18 18 18 17 17 17 16 14 13 12 13 13 12 11 11 10 10 9 9 9 8 8 7 6 7 7 7 7 6 6 6 6 6 6 6 6 6 5 5 4 4 4 4 4 5 6 6 4 4 5 4 4
6 7 8 6 5 2 2 3 2 5 2 2 4 7 7 8 9 8 9 5 3 2 11 13 16 20 23 25 24 25 25 26 28 29 28 27 27 25 24 23 21 21 20 19 19 19 19 18 17 17 17 16 15 13 12 12 12 11 11 10 10 9 9 9 8 8 8 7 6 6 6 6 6 6 6 6 6 5 6 6 5 5 5 4 3 3 5 4 5 5 5 4 4 4 4 3 3
9 7 6 6 7 6 5 4 3 4 2 1 1 5 7 9 8 7 7 5 3 6 11 14 17 20 23 24 23 23 24 25 27 28 28 26 26 25 24 23 22 21 20 19 20 19 20 19 18 17 17 16 15 13 12 12 11 10 10 10 9 9 9 9 8 8 7 7 6 5 5 6 6 6 6 5 5 5 5 5 5 5 4 4 3 3 4 5 5 5 4 4 3 2 2 2 2
13 11 6 4 6 7 6 5 5 5 3 2 2 5 7 9 7 7 8 7 4 9 13 15 17 20 21 22 23 22 22 25 27 28 27 25 24 24 23 22 22 21 20 20 20 20 20 20 19 18 17 16 14 13 12 11 10 10 10 10 9 9 9 8 8 8 7 6 5 5 4 5 5 6 6 5 5 5 5 4 4 5 4 4 3 4 4 4 5 5 4 3 3 2 1 2 2
10 13 10 6 7 6 6 6 7 5 3 2 4 7 7 8 8 6 10 10 8 11 14 16 18 19 19 20 21 21 22 24 26 28 27 25 24 24 23 22 22 21 21 21 20 20 20 20 20 19 18 17 15 13 12 11 10 9 9 9 9 9 8 7 8 7 7 6 6 5 4 4 5 5 5 5 5 5 4 4 4 4 4 4 4 4 4 4 5 5 4 3 3 2 1 1 1
2 9 11 11 11 8 8 8 8 7 5 5 6 7 6 8 8 6 10 13 12 14 15 17 17 18 19 19 20 20 21 24 26 27 26 25 24 25 24 23 22 22 21 22 20 20 21 21 20 19 18 18 16 14 13 11 10 10 9 9 8 8 7 7 7 7 7 6 6 6 4 4 4 4 5 4 4 4 4 4 4 4 4 4 4 3 3 4 5 4 3 3 3 2 1 1 1
3 5 8 11 12 11 11 11 10 8 6 7 8 7 6 8 9 6 9 14 14 14 16 17 16 16 17 18 19 17 18 23 25 25 26 26 25 24 25 24 23 23 22 22 21 20 21 21 21 20 19 18 16 14 13 12 11 10 9 9 8 8 7 7 7 6 6 6 6 6 5 4 3 4 4 4 4 4 4 3 3 3 4 5 3 2 3 4 4 3 3 2 2 1 1 1 1
8 8 9 9 10 11 13 13 12 10 7 7 7 8 8 9 11 9 9 14 14 14 15 16 15 14 16 17 16 15 17 22 24 24 26 26 25 25 25 25 25 23 22 22 21 21 22 21 21 20 19 19 17 15 14 13 11 11 10 9 8 8 7 7 7 6 6 6 6 6 5 5 4 3 3 3 3 3 3 3 3 3 4 4 3 3 3 3 3 3 2 2 2 1 1 2 2
10 9 9 9 8 10 13 14 13 12 8 8 8 7 7 10 13 11 11 14 15 14 15 15 15 14 14 15 15 15 18 20 22 23 25 25 24 25 26 25 25 23 21 22 22 22 22 21 20 20 19 19 18 15 13 13 12 11 10 9 8 8 8 7 7 6 7 6 6 6 5 5 4 3 3 2 2 2 3 2 2 2 3 3 2 2 3 3 4 4 3 3 2 1 2 3 3
9 9 8 8 7 8 13 15 15 13 10 10 10 6 5 10 13 13 13 16 15 14 15 15 14 14 14 15 15 15 17 20 23 24 25 26 24 24 26 25 26 23 21 23 24 23 22 21 20 19 19 19 19 17 14 13 13 11 11 9 9 9 8 7 7 7 7 7 6 6 6 5 4 4 3 2 2 1 2 2 2 2 3 1 2 3 3 3 4 4 3 3 2 2 3 4 4
8 8 8 9 8 7 11 14 15 14 11 13 12 7 5 8 12 13 14 17 17 14 15 16 15 16 15 15 15 15 16 21 24 25 26 26 24 24 26 26 26 25 23 23 24 24 22 21 20 19 20 20 19 18 15 14 13 12 11 9 9 9 8 7 7 7 7 7 6 6 6 6 5 4 3 2 1 1 1 1 1 1 2 1 2 4 3 3 4 5 4 3 3 3 2 3 4
8 9 9 10 11 9 9 12 15 15 11 13 15 7 4 4 8 14 17 18 18 15 15 17 16 16 16 14 14 14 15 18 21 24 27 27 25 24 25 27 27 26 24 23 24 24 23 21 20 19 20 20 18 18 16 14 13 13 12 10 9 9 8 7 7 6 6 6 6 5 6 6 5 5 4 3 2 1 1 0 1 1 1 2 1 2 2 3 3 4 4 4 3 3 3 3 4
8 9 9 11 13 11 9 11 14 16 12 12 15 10 6 6 8 12 17 18 17 15 15 17 16 16 15 14 14 15 16 17 18 23 27 27 25 24 25 26 27 25 23 24 25 25 24 22 21 19 19 20 18 17 17 15 14 13 12 11 10 10 9 8 7 7 7 6 6 5 5 5 5 5 4 3 3 2 1 1 0 1 1 1 1 0 2 3 3 4 4 4 3 3 3 3 3
11 10 9 11 12 12 12 9 10 15 15 12 14 12 11 9 9 11 15 16 16 15 15 16 16 17 16 15 15 15 16 17 18 24 28 27 26 25 25 25 26 26 24 24 24 24 24 22 21 20 19 20 19 17 16 14 13 13 13 12 12 11 11 10 8 8 7 7 6 6 5 5 5 6 6 5 4 3 2 1 0 1 1 1 0 1 2 3 3 3 3 3 3 3 3 2 3
10 11 11 12 11 11 13 9 7 11 15 14 15 12 11 12 12 14 15 14 15 14 14 14 15 15 15 15 15 15 17 17 19 25 28 27 26 25 25 25 26 25 24 24 24 24 23 22 21 20 19 19 19 17 16 15 14 13 13 14 13 12 12 11 10 9 8 7 7 6 6 5 6 6 6 5 4 4 3 2 1 1 1 1 0 2 3 3 3 3 3 3 3 3 2 2 2
7 9 10 13 12 11 14 13 8 7 10 13 16 14 13 15 15 13 12 13 14 14 14 14 15 15 15 16 16 17 17 16 18 24 27 27 27 26 25 25 25 25 24 24 25 24 24 23 22 21 20 19 19 18 17 16 16 15 15 15 14 13 12 11 11 10 9 8 8 7 6 6 7 7 7 6 5 5 4 3 2 1 1 1 0 1 2 2 2 3 2 2 3 2 2 1 2
7 8 8 10 12 10 13 13 8 7 9 10 13 15 14 15 14 11 11 13 14 14 15 15 17 16 15 17 18 17 15 14 17 21 25 27 26 27 26 25 26 27 25 25 26 25 25 24 23 22 21 21 20 19 18 17 17 16 15 16 15 13 13 12 12 11 11 10 9 10 9 7 7 8 8 7 6 6 5 4 3 2 2 1 0 1 1 1 2 2 2 2 2 2 1 1 2
10 8 7 8 9 9 10 10 6 7 8 9 11 12 12 14 14 13 12 12 12 13 15 15 17 17 15 16 17 17 16 16 18 20 24 28 28 28 27 25 27 27 26 26 26 26 25 25 24 23 22 22 21 20 19 18 16 15 14 14 15 13 12 12 11 10 11 11 10 11 11 10 9 9 9 8 7 6 6 5 4 3 2 2 2 1 0 0 1 1 1 2 2 1 1 1 2
10 9 8 8 8 9 10 9 9 9 8 10 12 11 10 12 14 15 13 13 12 13 15 15 16 17 16 16 16 16 18 18 18 20 22 25 28 29 28 26 27 27 27 27 27 27 26 25 25 24 23 22 21 21 19 17 16 14 13 12 13 12 10 10 10 10 11 11 11 11 11 12 11 10 10 9 8 7 7 7 5 4 4 4 3 2 2 1 1 1 1 1 1 1 2 2 3
12 12 11 9 9 10 9 5 7 9 10 12 12 9 9 11 14 15 13 13 13 13 14 15 15 16 15 15 16 17 18 18 19 20 20 22 26 28 29 27 27 28 28 28 28 28 26 26 26 25 24 23 22 22 20 18 16 15 13 11 11 11 9 10 11 11 12 12 12 12 12 12 12 12 11 10 9 8 8 8 7 5 5 4 4 4 3 3 2 2 1 1 2 2 2 2 3
11 14 15 13 10 10 9 6 5 7 10 13 14 11 8 12 16 15 12 13 15 13 13 15 15 14 14 14 16 17 18 18 19 20 20 22 25 27 28 28 28 28 28 28 28 28 26 26 27 26 24 24 23 23 22 19 17 16 16 15 15 14 13 12 13 14 13 12 12 12 12 12 13 13 12 11 10 9 8 8 7 6 5 5 5 5 4 4 4 3 2 2 1 1 1 1 2
8 10 15 17 14 11 10 9 8 7 7 10 13 12 9 10 16 17 15 14 15 14 14 16 14 14 15 14 15 16 17 18 18 19 20 21 24 26 27 29 29 28 28 28 27 27 27 26 27 27 25 24 24 23 23 22 18 18 19 18 17 17 16 15 15 14 13 11 11 12 12 12 13 14 13 12 11 10 9 9 8 7 6 6 5 5 5 5 4 4 3 2 1 1 2 0 2
8 7 10 16 18 15 12 10 9 8 8 6 10 11 10 9 12 15 17 17 17 16 15 15 14 15 17 16 16 17 18 18 17 19 20 21 25 27 29 30 30 29 28 28 27 27 28 27 27 27 26 24 24 24 24 23 20 21 21 19 17 17 17 15 14 14 13 11 11 12 12 12 13 14 14 13 12 12 10 9 9 8 7 7 6 6 6 6 5 4 4 3 2 2 2 1 1
10 6 5 11 16 18 16 11 9 8 9 9 10 11 10 9 10 11 14 17 17 17 17 16 15 17 18 17 18 18 18 19 18 19 21 22 25 29 30 31 30 29 28 28 28 27 27 27 26 27 26 25 25 25 24 24 23 23 22 19 17 17 16 15 14 14 14 13 13 13 13 12 12 13 15 14 13 13 12 11 10 9 9 8 7 6 6 6 6 6 5 5 4 3 3 2 1
11 8 5 8 12 15 16 12 9 9 11 12 13 13 10 9 11 11 11 13 15 15 15 15 16 17 17 17 17 17 17 17 18 19 20 23 27 30 30 29 29 29 28 28 27 27 27 27 27 28 28 25 25 26 26 26 27 25 22 21 19 17 16 16 15 14 15 15 14 14 14 14 13 13 14 15 15 14 13 12 11 10 10 9 8 7 6 7 7 7 7 6 5 4 3 3 2
12 10 9 9 9 10 11 11 9 10 12 14 16 16 13 11 10 11 12 11 13 14 13 13 15 16 16 16 16 16 16 16 17 18 19 23 27 29 29 29 29 29 28 27 27 27 28 28 28 29 28 26 25 27 27 27 28 26 23 23 21 19 18 17 16 16 16 15 15 15 14 14 14 14 14 15 16 15 14 13 12 11 10 10 9 8 7 7 7 8 7 7 6 5 4 3 3
11 10 9 8 8 8 8 9 10 11 12 13 16 18 16 13 10 10 11 12 14 15 14 14 15 15 15 15 15 16 16 16 17 17 17 20 23 25 28 29 29 29 28 28 28 28 28 28 29 29 28 27 26 27 27 27 28 27 25 24 22 21 20 18 19 18 17 17 16 15 14 14 14 14 14 14 15 15 15 14 13 12 11 10 10 9 8 7 6 7 7 7 7 6 5 4 4
11 9 10 9 8 8 8 9 10 12 11 11 15 17 16 15 12 11 12 12 13 14 14 14 14 14 15 15 15 14 15 16 16 16 16 18 19 21 26 28 29 30 30 30 30 29 28 28 29 30 30 29 28 27 27 28 29 28 26 25 24 23 21 19 20 19 18 17 16 16 16 15 15 15 15 14 14 14 14 14 14 13 12 11 11 10 9 8 7 7 7 7 7 7 6 5 5
12 11 10 10 9 8 10 10 9 11 11 12 15 15 14 13 13 15 16 13 11 11 12 12 12 12 12 13 14 14 14 16 15 16 17 18 18 20 25 29 29 31 32 32 31 30 29 28 30 31 30 30 28 28 28 29 30 28 27 26 24 23 22 20 20 19 19 18 17 17 17 16 16 16 16 15 14 14 14 14 14 13 13 12 12 12 10 9 8 7 7 8 8 7 7 7 6
12 12 10 11 9 8 8 8 9 10 9 13 16 13 11 10 8 11 16 16 14 11 10 10 9 10 10 11 13 14 15 16 15 16 18 18 20 23 26 29 30 31 33 33 31 31 30 29 30 31 31 30 30 29 29 30 30 29 27 26 25 23 22 21 21 19 19 18 17 18 18 17 16 15 15 15 15 15 14 14 13 14 14 13 13 13 11 10 10 9 8 8 8 8 8 8 7
10 11 11 12 10 8 7 6 8 8 8 10 13 9 7 6 4 4 9 13 16 16 15 15 14 12 12 10 12 13 14 15 16 16 18 19 21 25 27 29 30 31 32 33 32 32 31 29 30 31 31 31 32 31 30 29 30 29 28 27 26 24 22 21 21 19 19 19 18 18 18 18 17 15 14 15 15 15 15 15 14 14 14 14 14 13 12 11 10 10 9 8 8 8 9 9 8
8 11 12 11 11 10 8 8 8 8 9 8 9 9 8 7 7 8 10 11 13 15 16 18 18 17 16 13 12 13 13 15 16 16 18 19 20 24 28 30 31 32 33 34 33 33 33 31 30 31 31 31 32 32 30 30 30 29 28 28 27 25 24 23 21 21 21 20 19 18 18 17 17 16 15 15 15 15 16 15 14 14 14 14 14 14 13 12 11 11 10 9 8 9 9 9 9
8 10 11 10 11 11 8 8 8 9 10 7 8 12 11 9 8 10 15 17 15 15 15 15 17 17 17 16 14 15 15 15 17 18 18 18 19 23 27 29 32 34 34 35 35 34 33 32 31 32 33 32 32 32 31 31 31 29 28 28 28 27 26 24 22 21 20 20 19 19 18 17 17 17 16 15 15 15 15 15 15 14 14 14 14 14 14 13 13 12 11 10 9 9 9 9 9
14 9 9 11 11 11 9 8 9 10 10 8 10 13 12 10 7 7 14 20 19 18 16 16 17 16 15 15 16 17 17 15 16 17 17 17 19 23 28 30 32 33 33 34 35 34 33 33 32 33 34 33 32 32 31 31 30 29 27 28 29 28 26 25 23 22 20 20 20 19 19 19 18 17 17 16 16 15 15 15 15 15 14 14 14 14 14 14 13 12 12 11 10 10 10 10 10
16 13 10 12 10 9 9 8 8 9 9 8 10 11 9 9 9 8 9 13 17 18 16 15 17 16 14 14 14 16 16 15 15 16 17 19 20 24 30 32 33 34 34 34 35 35 34 33 32 32 32 32 32 32 32 31 31 29 28 28 29 28 27 26 25 24 22 21 21 20 19 20 19 18 18 18 18 17 16 15 15 15 15 15 15 14 14 14 14 13 12 11 11 11 11 11 11
14 13 12 11 11 10 10 9 9 9 8 7 7 8 7 5 8 11 9 8 10 13 13 13 14 15 15 14 14 14 14 15 15 16 17 19 20 24 30 31 31 31 31 32 33 34 33 32 32 33 32 33 33 33 32 32 31 30 29 29 29 28 28 27 25 24 23 21 21 21 20 19 19 19 18 18 18 18 18 17 16 15 15 15 15 15 14 14 14 14 13 12 11 11 12 12 11
9 13 14 14 12 11 10 10 11 10 9 8 7 7 5 3 4 8 9 9 9 10 12 12 12 14 15 14 14 14 14 15 16 16 17 19 19 22 26 28 28 29 30 32 33 33 33 34 33 33 33 33 34 34 33 32 31 31 31 30 29 28 28 27 26 25 24 22 21 21 20 19 19 19 19 19 19 18 19 18 17 16 16 15 15 15 15 14 14 14 14 13 12 13 13 13 12
Wind_Direction
154 158 158 164 165 165 172 200 242 194 241 263 153 109 134 109 102 131 136 144 134 134 136 133 139 130 123 121 117 89 49 59 46 74 112 121 134 139 143 139 138 136 134 133 133 131 130 131 130 128 126 125 126 127 127 126 127 131 134 135 136 135 134 134 135 135 135 133 131 130 128 126 124 123 121 117 114 113 112 110 109 107 104 101 100 98 92 89 87 87 94 98 98 98 98 97 94
159 160 160 165 169 183 176 201 252 191 218 235 106 85 115 132 144 142 137 148 128 134 144 137 132 112 92 117 124 104 67 44 60 89 105 126 131 136 142 141 140 137 135 134 135 136 134 134 132 131 131 131 133 134 134 135 136 137 136 134 134 132 132 133 134 134 132 131 130 128 126 125 123 121 119 117 116 115 113 112 111 108 104 102 100 97 93 90 90 89 92 97 97 97 99 97 94
161 159 160 166 170 223 266 206 252 243 216 154 97 82 112 134 136 124 128 131 122 138 138 131 125 115 143 138 123 97 96 69 98 109 117 133 134 140 144 141 140 136 134 135 136 135 133 134 133 133 133 133 133 133 134 134 134 134 132 130 129 128 129 130 131 131 130 130 128 127 125 123 122 119 118 118 117 117 114 112 113 109 103 102 98 95 94 92 92 92 91 92 92 92 96 98 97
160 161 168 180 186 223 249 210 258 276 231 84 96 99 122 125 118 119 124 126 131 140 133 133 124 92 146 129 94 87 104 97 115 123 132 142 140 142 144 141 140 136 136 136 134 133 133 135 135 134 133 132 132 131 132 130 130 130 129 128 127 127 128 129 130 129 129 128 126 125 123 121 118 117 117 117 117 115 112 110 114 111 104 105 103 97 94 93 94 94 91 89 90 91 93 97 97
159 171 177 194 230 216 253 231 237 261 43 41 92 106 121 115 123 128 127 135 141 140 136 143 124 100 92 82 69 106 106 106 124 134 136 139 138 141 143 141 140 137 136 136 135 131 134 137 135 134 132 132 132 131 131 129 129 129 128 127 126 126 128 128 126 126 126 125 125 122 118 117 115 114 114 113 114 114 111 110 112 110 106 108 106 100 95 95 94 91 90 90 90 89 89 88 91
155 171 180 224 286 282 272 243 215 194 60 16 79 100 117 119 129 128 132 143 144 145 141 134 125 127 100 66 59 82 97 122 135 142 138 137 140 142 142 142 140 137 136 135 134 131 135 138 136 135 133 134 134 133 132 131 130 129 129 128 125 125 125 123 122 122 122 121 120 117 113 114 116 114 112 111 112 113 112 109 108 107 107 110 107 101 97 96 94 88 86 88 88 86 87 89 94
156 164 185 225 252 239 259 259 261 75 78 9 67 106 129 129 133 134 142 148 146 156 147 124 130 127 108 104 84 67 85 130 139 144 140 141 143 144 144 144 140 136 136 134 132 132 137 138 137 136 134 135 135 133 132 131 130 129 129 127 125 124 123 122 122 120 117 115 114 113 114 115 117 114 110 109 110 109 107 105 105 107 109 110 108 103 99 97 95 92 88 86 86 86 87 90 93
167 179 209 238 242 196 247 268 71 55 87 73 80 113 136 135 144 147 147 150 153 162 156 145 143 111 106 130 98 83 114 132 139 141 140 142 144 146 147 144 140 138 136 133 132 134 138 137 138 136 136 136 135 134 133 132 131 130 128 126 124 123 123 122 121 119 117 114 112 113 114 114 114 112 108 108 109 106 103 102 104 106 109 110 110 106 100 96 94 93 89 84 84 85 84 84 87
179 213 267 255 265 211 238 110 103 81 99 104 101 120 139 144 152 153 151 151 153 162 163 162 160 107 114 112 96 108 127 133 137 139 143 145 146 148 148 146 141 139 136 134 133 134 138 139 139 138 138 136 134 135 135 134 132 131 129 127 126 125 122 121 120 119 118 115 114 112 111 111 110 109 108 107 106 103 101 102 102 101 103 104 106 106 101 97 94 93 89 84 83 83 82 85 91
187 224 257 248 266 237 181 115 107 108 105 96 111 134 149 154 158 159 154 144 149 158 156 160 155 120 122 108 99 116 129 136 140 143 147 147 148 150 148 146 143 141 139 137 135 136 139 140 140 139 139 136 134 136 136 134 133 131 129 128 127 125 123 122 121 118 117 115 113 110 111 110 108 108 107 105 102 101 101 101 98 95 95 98 102 103 102 100 98 98 92 85 81 80 85 89 92
204 216 241 258 268 285 68 87 99 110 114 116 123 140 156 158 163 164 150 138 148 148 146 160 142 127 123 106 94 120 135 142 145 147 149 149 150 151 148 145 145 144 140 139 138 138 140 142 142 141 141 137 136 138 137 135 134 131 129 128 126 124 124 123 121 119 117 114 110 108 109 107 105 105 102 99 98 97 96 96 95 94 94 96 100 100 101 102 102 100 94 89 84 81 84 89 88
241 217 241 274 303 356 14 61 98 110 126 141 137 147 165 162 166 162 150 141 146 146 154 167 142 137 128 112 113 134 144 148 149 150 149 150 151 151 150 147 147 146 142 140 139 140 141 143 143 143 144 138 138 140 137 135 133 130 129 127 126 126 124 123 122 120 116 111 110 109 106 103 100 99 97 96 95 95 95 96 97 98 99 97 96 96 99 101 101 100 95 90 85 82 82 84 87
234 236 262 285 321 342 313 83 111 132 143 145 144 153 164 165 167 157 149 143 151 157 156 156 144 146 121 109 128 141 151 152 151 152 150 151 151 151 152 149 149 146 144 142 141 142 144 144 144 145 147 141 139 139 135 134 132 130 129 127 127 126 124 124 122 119 117 113 112 110 107 104 102 100 98 97 97 96 95 97 97 97 99 97 95 94 95 97 98 97 91 85 81 82 83 84 88
223 252 281 296 302 283 273 144 129 166 138 127 139 153 165 164 159 149 150 150 149 144 134 140 148 138 117 122 138 151 156 152 152 153 152 152 151 151 152 151 150 148 147 145 144 145 146 146 146 148 149 144 140 139 137 135 133 131 129 128 127 125 124 123 121 119 118 117 114 111 109 107 105 103 100 99 96 93 92 95 96 95 96 95 95 94 94 95 95 93 88 85 84 84 84 84 85
234 262 269 276 272 235 235 113 134 181 122 129 145 153 162 143 147 153 159 154 121 109 122 143 160 137 146 156 155 160 157 153 155 156 153 152 150 150 150 151 150 150 150 148 148 147 149 149 148 150 152 147 142 143 141 137 134 131 130 129 128 127 125 123 122 121 120 118 116 114 113 111 110 108 105 102 97 94 94 94 93 92 94 96 95 96 96 95 94 93 92 90 90 91 89 85 83
239 269 262 260 261 219 169 141 148 164 118 134 148 156 162 144 166 159 129 131 117 132 143 150 164 122 158 165 153 156 157 154 156 157 154 151 151 150 150 152 151 152 153 151 152 151 151 151 151 153 155 151 146 146 143 138 135 133 132 131 130 129 127 125 124 124 123 121 122 121 118 115 112 110 108 106 103 101 99 95 93 90 89 93 93 94 96 96 93 89 88 87 87 88 85 83 84
233 254 254 249 244 188 109 107 70 102 116 133 150 167 168 149 166 146 120 145 139 151 150 134 142 92 126 143 143 150 155 155 157 158 157 155 154 154 154 154 154 155 157 157 156 155 154 154 154 155 157 155 150 148 142 138 138 137 137 136 134 133 131 130 128 127 127 126 126 122 116 115 113 113 111 108 105 101 99 95 94 92 92 96 95 94 94 93 89 86 85 83 79 76 77 77 77
220 234 243 251 229 84 58 48 42 58 130 139 160 177 175 157 161 152 157 167 147 148 139 126 122 97 103 125 139 148 154 156 159 160 160 161 160 159 158 158 159 159 160 160 160 159 158 157 158 158 158 158 153 148 142 141 142 142 142 140 138 138 137 135 133 133 132 129 128 122 119 120 117 115 112 110 105 100 102 100 98 97 98 101 101 100 99 93 84 83 86 85 82 80 84 81 72
216 233 242 250 77 74 55 41 32 5 97 139 169 182 185 165 159 169 177 164 154 156 145 139 125 112 116 131 142 149 155 159 162 164 163 165 165 162 161 161 162 161 163 163 162 163 163 161 162 162 161 159 156 151 148 147 148 148 146 145 143 144 144 142 140 139 137 133 130 127 124 119 113 111 112 111 103 98 99 99 99 98 99 97 93 87 85 87 79 75 82 85 84 84 91 91 79
216 235 244 223 88 93 75 36 37 26 40 162 175 182 192 166 158 181 184 164 169 175 157 155 144 132 135 143 150 152 158 162 165 167 167 168 168 165 163 163 163 163 165 164 163 165 166 165 163 164 164 161 159 156 154 153 154 154 151 151 150 150 150 147 144 142 139 136 131 127 123 118 112 108 111 107 99 98 95 93 92 90 93 89 84 74 65 74 75 68 71 73 65 66 78 82 78
207 223 246 54 120 169 105 73 60 45 9 198 175 181 190 170 167 187 187 175 182 185 170 168 154 143 145 151 157 158 161 165 168 171 170 171 171 168 166 166 165 164 165 164 163 166 168 168 165 165 165 164 163 160 159 158 158 157 157 157 155 155 155 151 150 147 142 139 134 128 124 122 117 114 114 110 105 108 108 104 98 95 96 91 90 92 77 72 80 72 65 71 70 69 75 76 80
227 219 242 275 199 173 115 116 54 28 13 120 175 186 183 171 181 195 194 182 187 184 170 167 153 146 151 157 161 163 165 168 171 173 171 173 173 170 168 168 167 164 166 166 165 166 168 169 167 167 167 167 166 164 161 160 162 161 160 160 158 158 158 157 156 152 147 144 138 131 128 127 124 120 117 114 111 109 108 108 104 104 106 97 90 100 95 79 90 87 71 76 83 85 83 83 89
243 221 229 239 235 234 172 187 12 359 11 91 176 187 178 182 190 198 204 183 46 141 155 153 151 150 154 158 164 167 168 171 174 175 174 173 173 172 170 170 169 166 168 169 167 167 169 170 169 168 169 169 170 168 163 161 165 164 162 162 162 161 160 162 159 153 151 147 139 136 135 131 127 122 118 115 111 106 101 100 100 100 99 93 79 86 94 81 78 77 71 70 67 76 91 105 107
238 245 234 232 239 235 219 229 288 310 307 330 197 185 189 200 191 171 205 216 89 113 138 145 147 151 156 159 167 170 169 172 175 176 176 175 175 174 172 171 168 167 169 169 168 168 170 170 170 170 172 172 173 171 167 165 167 165 163 165 165 163 163 163 159 152 150 149 144 139 133 129 128 123 121 118 110 103 96 95 97 95 86 84 78 70 76 76 76 70 64 64 56 61 86 107 110
228 248 255 244 244 237 233 242 257 270 274 280 217 203 199 205 202 162 188 218 159 128 135 144 147 152 159 163 167 169 170 173 175 177 177 177 177 176 174 172 169 168 170 168 169 171 171 171 171 173 174 175 175 173 171 169 169 167 165 167 166 165 166 162 157 153 150 153 148 140 131 127 128 123 121 117 110 103 95 93 91 89 81 76 72 67 66 66 74 67 57 56 48 42 65 96 111
220 238 251 253 249 238 235 234 237 249 247 240 216 211 200 198 214 191 186 195 165 145 144 148 152 157 163 166 168 169 172 175 177 178 178 178 179 178 176 174 172 171 171 169 170 172 172 172 174 175 174 176 177 175 175 172 171 170 168 169 167 167 169 162 158 158 154 154 151 150 139 122 122 120 118 112 108 101 95 90 83 86 83 72 54 62 69 60 65 63 51 44 34 23 45 74 106
200 238 252 254 258 251 243 243 239 246 242 236 230 214 193 183 203 205 179 174 163 154 153 154 158 162 165 168 169 171 174 175 177 177 178 179 180 180 178 176 175 174 172 171 172 173 174 174 176 176 175 176 177 178 177 174 174 172 172 170 168 170 170 164 163 162 158 154 153 155 145 127 118 114 113 106 104 98 93 89 79 79 76 70 51 60 77 58 58 57 43 35 28 17 27 93 142
258 260 266 251 252 249 241 243 237 238 233 218 224 226 200 179 199 218 166 159 166 163 158 160 165 166 167 170 169 172 176 176 177 179 181 181 182 182 180 178 177 175 175 175 173 173 175 176 177 177 176 177 178 180 178 177 177 175 175 173 171 172 170 169 170 167 161 157 154 154 149 141 127 115 114 105 105 100 93 88 79 75 68 69 42 22 59 58 48 40 27 9 13 20 40 136 155
255 261 273 258 247 242 228 226 222 219 215 189 207 229 208 190 205 210 161 157 170 169 163 165 169 169 169 171 170 173 177 176 179 182 184 183 183 183 182 181 178 177 177 176 174 174 176 176 177 178 178 179 180 180 179 179 180 177 177 176 174 174 174 177 175 171 167 161 160 160 158 153 143 129 122 112 116 109 101 89 77 78 67 64 39 15 37 55 42 26 18 356 359 41 102 121 137
245 244 258 264 253 237 216 210 208 208 205 182 203 227 200 199 209 195 162 166 176 172 170 170 171 170 171 173 171 176 177 178 182 184 185 185 184 185 184 183 181 180 177 177 177 177 177 176 177 179 180 182 183 183 181 182 182 179 179 178 176 177 178 180 178 175 170 167 168 169 167 162 159 154 144 132 123 120 118 105 86 85 75 65 42 32 36 46 41 28 27 20 23 88 111 118 120
230 231 238 247 250 231 200 197 200 200 194 186 209 236 197 188 194 189 171 173 180 177 176 174 173 173 173 176 174 177 180 182 185 185 186 186 184 185 185 183 182 182 179 179 180 178 178 177 177 179 181 183 185 186 186 185 185 183 182 180 180 181 182 184 182 179 175 173 171 171 173 170 172 172 166 160 135 137 137 112 103 81 76 71 337 10 46 47 41 37 30 24 45 89 113 123 111
214 220 224 223 236 228 188 187 197 200 187 185 208 238 225 177 166 182 181 177 185 183 180 178 177 178 175 178 178 179 182 185 187 186 186 186 184 185 185 184 184 184 182 181 180 179 179 179 179 180 181 183 185 187 188 188 188 188 188 185 185 186 187 190 188 184 180 179 175 171 175 175 181 184 181 183 164 170 166 108 109 81 73 101 345 5 61 72 40 39 27 14 45 67 91 114 102
207 216 223 213 218 220 192 184 194 203 193 188 208 227 242 182 153 182 185 183 190 187 185 184 180 181 178 180 181 181 183 184 188 188 186 186 186 186 186 186 185 185 183 181 179 179 180 179 181 182 182 183 185 187 188 189 190 191 192 191 192 194 196 197 195 193 188 185 184 178 175 179 187 191 194 201 204 212 214 147 102 102 95 110 53 359 65 81 47 39 29 23 40 50 60 83 85
201 208 225 220 217 219 203 185 187 203 207 199 210 217 216 187 150 185 191 184 192 191 188 188 183 182 181 181 184 183 184 184 188 189 187 186 186 186 186 186 186 186 184 183 181 180 181 180 182 184 184 185 185 186 188 189 190 192 196 198 200 203 206 207 204 204 202 197 194 187 183 183 189 194 200 212 223 230 221 226 77 92 97 105 118 31 58 59 42 31 29 30 31 43 53 56 55
203 196 215 221 217 223 213 190 176 199 212 209 211 212 220 211 158 185 204 188 192 198 191 190 187 184 182 183 186 186 187 188 188 188 186 186 185 185 185 185 186 187 186 185 183 181 182 182 182 184 184 185 185 184 185 187 190 193 198 201 204 209 213 215 214 211 210 208 203 199 198 195 197 197 200 214 226 229 218 198 153 93 107 93 77 54 56 56 45 31 28 24 23 46 56 48 46
219 206 213 218 215 222 217 200 164 194 216 219 220 211 213 228 199 189 202 194 195 202 194 191 189 185 184 185 189 188 190 192 188 187 186 185 185 184 184 185 186 187 187 185 183 182 183 182 182 183 184 184 183 182 184 187 190 193 197 200 203 209 211 214 217 216 214 213 209 206 208 209 208 203 204 217 226 231 231 211 175 163 165 150 44 23 39 51 53 42 35 23 24 43 51 63 73
248 230 217 220 221 218 215 210 182 191 224 221 225 224 208 221 220 195 190 194 200 203 197 194 191 189 187 188 190 190 192 192 185 185 187 186 186 185 184 184 185 187 188 186 185 184 183 184 183 184 185 183 183 183 186 190 191 191 194 198 202 206 207 210 214 215 217 216 212 209 210 215 216 212 214 221 227 233 233 226 208 200 206 189 116 29 40 45 41 43 39 30 33 42 39 63 79
244 246 224 221 225 220 216 213 191 198 232 228 225 234 226 223 229 214 193 197 203 203 201 196 194 193 190 192 192 189 189 187 183 184 187 187 187 186 185 185 186 187 187 187 187 186 185 186 186 185 185 186 187 187 188 192 193 192 194 198 202 204 203 206 211 213 215 214 213 217 217 216 219 218 220 224 227 230 228 227 221 215 230 227 274 353 31 37 29 36 34 24 31 44 33 57 79
234 241 233 225 221 223 222 209 193 206 230 236 226 233 237 228 231 232 213 204 206 206 206 200 196 195 193 194 191 187 186 185 185 184 185 187 187 186 186 187 188 188 188 188 189 188 187 189 189 188 187 188 190 190 191 193 194 195 197 198 201 203 203 204 208 208 209 211 213 219 221 218 218 220 222 224 224 225 224 223 219 218 226 229 241 261 226 252 25 19 353 354 5 29 51 78 97
231 232 235 233 218 221 227 202 199 221 232 242 241 240 239 228 225 230 224 211 206 208 211 206 200 199 197 195 191 188 186 185 186 185 185 187 186 187 187 188 189 189 189 190 190 190 190 191 190 189 189 190 192 192 193 194 192 191 195 196 197 202 201 196 198 202 206 210 211 214 217 217 216 218 220 222 222 223 223 222 222 219 220 224 229 228 222 227 225 278 305 317 317 358 53 100 116
227 231 233 235 222 224 238 212 194 220 230 240 248 251 244 231 223 222 219 212 210 211 210 207 204 202 200 196 193 192 189 187 187 186 186 187 187 188 188 188 188 189 191 191 191 191 191 192 190 189 190 190 192 192 192 191 188 186 188 186 187 193 192 189 195 205 209 212 215 214 214 215 215 215 218 221 221 222 224 223 222 220 223 225 225 228 229 232 233 249 265 255 271 323 27 87 121
224 225 229 236 237 229 236 244 221 221 224 220 226 242 243 228 226 225 216 210 211 211 207 206 203 198 198 197 195 194 193 191 189 187 187 187 188 188 188 189 189 190 192 192 191 192 192 192 190 189 190 191 193 192 191 191 189 188 190 187 187 189 195 199 204 210 213 214 217 217 213 212 213 214 217 220 219 221 225 224 222 221 225 226 225 230 231 231 232 232 238 246 266 294 332 74 125
230 214 219 230 240 241 236 239 234 233 236 206 204 232 248 226 223 224 219 214 210 206 204 204 200 195 197 199 196 195 194 192 191 190 188 187 187 188 189 191 192 193 192 191 191 192 191 191 190 189 189 192 194 192 192 194 193 195 199 198 196 196 200 206 208 212 214 214 216 215 212 210 210 212 215 217 218 220 224 226 225 224 224 226 226 228 229 231 230 218 219 225 246 261 266 312 131
233 209 210 222 230 236 238 243 239 243 258 219 193 225 249 239 225 219 217 217 211 205 204 201 197 197 199 200 198 196 195 191 189 190 190 189 189 189 190 191 193 193 191 190 191 191 190 190 189 189 190 191 192 190 193 197 198 202 205 203 202 203 204 206 205 207 210 210 211 211 210 210 209 211 214 216 216 218 221 225 226 225 225 225 225 225 228 231 227 213 213 214 216 230 238 259 156
231 221 221 224 225 231 235 243 247 245 255 242 209 215 236 243 232 222 219 218 212 209 209 204 200 200 200 202 202 198 195 192 190 190 190 191 191 192 192 192 193 193 192 191 191 189 188 188 187 188 189 191 190 189 193 199 203 206 206 203 203 204 204 205 202 202 204 205 208 209 209 211 210 211 214 216 217 217 220 223 225 225 225 224 222 224 225 225 224 220 222 221 215 221 227 235 225
230 224 226 230 227 230 230 235 246 245 247 244 225 214 228 244 230 219 219 216 212 212 213 208 203 201 199 202 204 199 195 193 193 192 192 192 193 193 193 191 192 193 193 193 191 189 187 186 187 188 189 189 189 190 193 200 205 207 207 206 206 202 199 201 200 199 200 201 206 208 207 210 213 216 217 217 219 219 220 221 223 223 223 223 222 222 221 220 220 220 224 227 222 223 223 221 228
229 223 219 224 223 224 225 228 237 243 241 239 233 225 232 247 233 219 216 212 214 217 214 208 206 202 198 200 203 197 193 194 194 194 193 193 193 193 192 191 192 192 192 192 192 190 187 186 187 188 188 188 188 188 191 198 205 208 209 210 209 203 198 196 196 197 199 200 205 207 208 210 213 218 220 219 219 220 221 221 222 222 222 223 222 222 223 219 218 218 219 224 225 227 226 223 231
226 221 212 218 214 208 217 218 220 235 239 233 233 232 234 242 235 223 219 208 212 222 217 208 205 202 197 198 201 198 194 193 193 194 193 191 192 191 191 191 191 190 190 190 191 190 188 186 186 186 188 187 186 187 191 199 205 207 209 211 211 207 201 196 196 199 200 201 205 206 207 207 210 215 218 219 220 219 220 220 221 222 221 221 221 222 223 221 220 218 215 219 222 223 225 224 227
219 213 207 213 206 195 206 210 212 229 236 228 229 230 232 242 241 232 231 218 210 220 221 213 205 202 198 196 198 198 194 192 191 193 192 190 191 190 190 190 188 189 190 191 191 191 190 188 186 186 187 187 187 188 193 200 205 206 208 210 211 210 206 201 200 202 203 205 207 205 204 205 206 210 214 218 220 218 217 218 219 220 220 220 222 225 226 225 224 222 219 220 221 222 222 223 227
210 206 204 209 202 195 204 209 215 229 232 222 224 232 236 243 242 232 232 231 221 216 216 214 211 210 205 197 197 196 192 192 191 192 192 192 191 189 189 189 188 189 191 191 191 191 190 189 187 186 186 187 188 189 192 199 203 205 207 209 210 210 208 206 205 205 206 207 207 207 207 208 209 211 213 216 218 218 218 218 219 220 221 222 225 228 230 228 228 227 226 224 223 224 223 224 228
207 207 211 217 213 209 209 209 215 226 233 216 211 224 238 238 240 230 227 228 226 221 214 213 216 217 213 202 198 196 193 192 192 192 195 194 190 189 189 189 189 190 191 191 191 191 190 190 188 187 186 186 187 189 192 198 202 204 205 207 209 209 209 210 209 207 206 207 207 208 208 210 213 213 213 214 216 218 219 219 220 222 223 224 227 229 228 227 228 229 229 228 226 224 222 223 227
199 202 215 218 218 226 231 236 234 235 245 222 204 212 233 235 234 217 223 225 222 223 225 225 223 218 217 214 204 199 195 194 193 194 197 195 191 189 189 190 190 190 190 191 191 190 190 190 189 188 186 185 186 188 191 197 201 202 204 205 207 209 209 210 211 208 205 205 206 207 207 209 213 212 209 210 213 216 219 220 224 226 226 226 228 229 225 222 223 225 226 226 227 227 222 221 224
193 197 216 218 220 231 239 244 246 248 249 229 205 214 221 235 238 214 218 229 222 221 224 225 224 219 219 221 213 203 198 195 194 196 197 194 191 191 191 191 190 189 190 191 190 189 190 189 188 187 186 185 187 188 191 196 199 200 202 204 206 208 208 210 211 208 206 204 205 207 208 210 212 211 209 210 211 213 217 220 224 228 228 227 228 228 226 223 219 222 225 222 225 229 225 223 224
221 202 204 208 222 231 237 241 228 226 239 227 211 221 218 220 230 213 215 224 224 222 220 220 221 219 220 222 214 207 203 198 197 198 197 193 191 192 193 193 192 191 190 189 189 188 189 189 188 187 186 186 186 188 190 194 196 197 199 202 205 207 208 210 211 210 205 203 204 206 208 209 211 211 211 211 210 211 213 216 221 224 225 226 227 226 225 224 221 223 224 221 222 226 227 228 227
243 244 207 198 215 219 216 231 227 221 233 230 220 228 227 221 221 206 211 219 222 222 221 220 220 218 219 217 211 207 205 201 199 199 196 194 194 193 193 194 195 193 190 189 188 187 189 190 190 189 189 187 185 186 189 192 194 195 197 200 204 206 208 209 211 211 206 204 205 206 207 209 209 210 210 209 209 209 211 213 217 220 222 224 226 226 225 223 222 222 223 221 219 219 224 229 229
233 256 238 211 216 219 209 219 232 231 238 235 222 225 229 226 226 226 217 215 219 220 219 220 221 220 217 211 209 208 204 201 199 198 196 196 196 195 194 195 194 192 190 189 188 188 189 190 190 190 190 188 186 186 187 190 193 195 196 198 201 204 207 208 209 210 208 206 207 208 207 208 208 208 208 208 209 211 211 213 216 218 219 221 223 225 224 224 223 221 220 221 217 214 220 227 230
213 226 230 221 215 215 217 221 226 232 241 239 226 226 226 214 217 225 221 208 213 219 222 222 219 220 216 209 210 209 203 201 198 197 198 197 198 197 196 195 193 191 190 189 190 190 190 190 190 190 190 189 189 188 187 189 191 194 195 196 198 201 204 206 207 207 207 207 207 208 208 207 207 207 207 208 210 212 213 214 216 216 216 218 219 220 221 221 222 219 216 218 217 214 219 225 230
231 218 216 222 220 214 220 225 220 225 238 239 237 241 232 165 177 209 214 215 220 222 226 229 224 222 220 214 213 209 201 201 200 198 200 198 197 198 195 192 191 190 190 191 192 191 190 191 191 190 190 191 191 190 188 188 189 192 194 195 196 198 200 202 203 203 204 206 206 207 207 206 207 207 207 208 210 212 213 214 215 215 214 215 214 215 218 219 219 218 215 216 216 215 217 222 227
Height
797 798 799 800 799 800 800 801 810 804 796 796 784 790 798 784 785 789 792 792 790 787 778 778 777 779 785 789 791 794 796 800 805 811 821 814 809 815 816 819 821 822 825 827 829 830 831 832 833 833 834 834 835 836 837 838 839 840 841 843 843 844 844 845 845 845 846 846 848 848 849 849 850 850 851 852 852 853 853 854 854 855 855 855 856 855 855 855 855 855 855 855 855 855 856 856 857
797 799 799 800 798 802 801 800 810 797 792 800 783 786 793 782 787 790 791 790 788 783 776 775 777 781 782 782 784 791 799 798 797 800 805 806 811 816 817 820 821 823 826 827 830 831 833 834 834 835 836 837 837 838 839 840 841 842 843 845 845 845 845 846 846 846 847 848 848 849 850 850 851 851 852 852 853 853 854 854 855 855 856 856 856 856 856 856 856 855 855 855 856 856 856 857 857
798 798 798 800 799 802 802 803 810 794 789 798 787 782 785 786 789 787 785 784 780 776 775 778 781 785 784 788 789 794 804 799 794 797 803 809 811 815 819 820 822 824 826 828 830 831 834 834 836 837 837 838 839 840 841 842 843 844 845 845 845 846 846 847 847 848 848 849 849 850 851 851 852 852 853 853 853 854 854 855 855 856 856 856 857 857 857 857 857 856 857 857 857 857 857 857 858
797 798 798 799 800 804 805 807 806 794 787 787 789 786 783 787 787 785 783 779 776 775 779 782 787 784 782 795 793 793 803 799 797 800 804 809 810 815 819 821 823 825 827 829 831 832 834 835 837 838 839 839 840 841 842 843 844 844 845 845 846 847 847 848 848 849 849 850 851 851 852 853 853 853 854 854 854 855 855 856 856 856 857 857 857 857 857 857 858 858 858 858 858 858 859 859 859
797 798 798 798 804 804 805 806 797 791 787 783 789 788 781 783 784 785 782 779 776 777 781 783 790 786 782 791 790 795 803 799 800 801 804 809 812 816 818 821 824 825 828 829 831 833 834 836 837 838 840 840 841 842 843 844 844 845 845 846 847 848 848 849 849 850 850 851 851 852 853 854 855 855 854 855 855 855 856 857 857 857 858 858 858 858 858 858 859 859 859 859 859 859 859 860 860
798 799 798 800 802 800 804 803 790 785 782 778 784 785 781 782 783 784 783 780 776 776 779 781 788 788 790 792 788 794 799 798 801 802 805 809 813 817 819 822 824 826 828 830 832 834 835 837 838 840 840 841 842 843 844 845 845 846 846 847 848 849 850 850 850 851 851 852 853 853 854 855 856 856 855 856 856 856 857 857 858 858 859 859 858 859 859 859 860 860 860 860 860 860 860 861 862
797 800 800 802 798 799 806 796 784 782 780 776 779 783 782 781 782 784 785 784 782 779 778 781 781 787 797 794 793 797 796 798 799 802 806 810 815 817 820 822 824 827 829 831 833 834 836 838 839 841 841 842 843 844 845 845 846 846 847 848 849 850 850 851 851 852 852 853 854 854 855 856 856 856 856 856 857 857 858 858 859 859 860 859 859 859 859 860 860 861 861 861 861 861 862 862 862
796 798 796 800 799 799 799 787 782 782 780 776 775 779 779 779 781 783 785 786 787 783 781 782 778 791 800 791 800 803 797 799 799 804 808 811 816 817 821 822 825 827 829 832 833 835 837 839 840 841 842 843 844 845 846 846 847 847 848 849 850 851 851 851 852 853 854 854 854 855 856 857 857 857 857 858 858 858 858 859 860 860 860 859 859 860 860 861 861 862 862 862 862 863 863 862 862
794 797 796 801 799 794 788 783 783 781 780 777 776 778 777 776 777 781 784 784 784 783 784 781 778 794 801 795 806 803 797 801 802 807 810 813 816 818 821 822 825 827 830 832 834 836 837 839 840 842 843 844 845 846 846 847 848 848 849 850 851 852 852 852 853 854 854 855 855 855 856 857 858 858 859 859 859 859 859 860 860 860 860 860 860 860 861 862 862 863 863 863 864 864 864 864 864
795 797 799 802 796 789 785 783 782 780 781 778 778 779 777 775 776 778 780 782 781 782 782 777 780 792 798 803 809 803 800 803 805 810 812 815 817 819 822 823 826 827 830 832 835 837 838 840 841 843 844 845 846 846 847 848 849 849 850 851 852 853 853 854 854 855 855 856 856 856 857 858 859 859 860 860 860 860 861 861 861 860 860 861 861 862 862 863 863 863 864 864 865 865 865 866 866
799 795 794 801 795 790 786 783 781 779 780 779 780 778 775 774 776 777 777 781 779 782 782 779 788 792 797 807 809 804 803 805 807 810 813 816 819 820 822 825 827 829 831 833 835 837 839 841 842 843 844 846 847 847 848 849 850 850 851 852 853 854 854 855 855 856 856 857 857 858 858 859 860 860 861 861 861 861 861 861 861 862 862 862 862 863 863 864 864 864 864 865 865 866 866 866 866
803 799 794 799 793 789 784 783 782 780 781 782 783 778 772 772 777 779 778 782 781 784 784 782 787 787 799 809 807 805 804 807 809 811 814 817 819 821 823 826 828 830 832 834 836 838 839 841 842 844 845 846 847 848 849 850 851 851 852 853 854 855 855 856 856 857 857 858 858 859 860 860 861 861 862 862 862 862 862 862 862 863 863 864 864 864 864 865 865 865 865 865 866 866 866 866 866
800 799 796 796 786 786 783 781 781 781 783 781 781 775 770 773 777 776 777 781 782 787 784 778 779 783 800 808 806 806 804 807 810 812 815 817 820 822 824 826 829 831 833 835 837 838 840 842 843 844 845 847 848 849 850 851 852 852 853 854 855 855 856 857 857 858 858 859 860 860 861 861 862 862 862 863 863 863 863 863 863 864 864 865 865 865 865 865 866 865 866 866 866 866 867 867 867
793 791 794 795 786 784 781 778 779 781 782 776 775 773 770 774 773 770 775 783 783 782 778 773 774 787 802 807 810 807 803 806 810 814 815 818 821 822 825 827 830 831 833 835 837 839 841 842 844 845 846 847 849 850 851 851 852 853 854 854 855 856 856 857 858 859 859 860 861 861 862 862 863 863 863 864 864 864 864 864 864 865 865 865 865 865 866 866 867 866 867 867 867 867 867 867 867
789 786 789 795 788 783 778 776 775 776 778 774 774 773 774 774 770 772 774 781 783 773 773 775 774 788 798 802 809 803 801 806 810 814 816 819 821 823 826 827 830 832 834 836 838 840 841 843 844 845 846 847 849 850 851 852 853 854 854 855 856 857 858 858 859 860 860 861 861 862 863 863 863 864 864 864 865 865 865 865 865 865 866 866 866 866 866 867 867 867 867 868 868 868 868 868 868
783 784 790 794 788 782 777 772 772 776 776 772 771 771 779 777 769 775 771 773 781 773 775 780 776 783 788 790 796 795 799 806 810 813 816 819 821 824 826 828 831 833 835 837 838 840 841 843 844 846 847 848 849 850 851 852 853 854 855 856 857 858 858 859 860 860 861 862 862 863 863 864 864 864 865 865 866 866 866 866 866 866 866 867 867 867 867 867 868 868 868 868 868 868 869 869 869
781 787 795 793 785 781 775 771 774 779 774 770 772 771 780 781 771 771 768 768 779 779 777 780 777 778 781 782 787 792 800 805 809 813 815 819 820 823 826 828 831 833 836 837 838 840 841 843 844 846 847 848 850 850 852 852 854 855 856 857 858 858 859 860 860 861 862 862 863 863 864 865 865 866 866 866 866 867 867 867 867 867 867 867 867 867 868 868 868 868 868 868 868 868 869 869 870
786 791 795 790 781 777 773 771 772 771 771 772 773 771 776 781 777 771 772 775 778 781 781 779 780 779 779 782 788 794 801 805 808 811 814 817 819 821 824 827 830 832 835 837 839 840 842 843 844 846 847 848 850 851 852 853 854 855 856 857 858 859 859 860 861 862 862 863 864 864 865 866 866 866 867 867 867 867 867 867 867 867 868 868 868 868 868 869 869 869 870 869 869 869 869 870 870
786 789 792 785 776 773 768 769 768 766 769 770 771 770 771 775 775 771 777 783 780 785 787 783 786 786 783 786 792 796 801 805 808 810 813 815 817 820 822 825 828 831 833 836 838 840 841 843 844 846 847 848 850 851 852 853 855 856 857 858 859 860 860 861 862 862 863 863 864 865 865 866 866 866 867 867 868 868 868 868 868 868 868 868 868 869 869 870 870 871 871 871 870 870 870 871 870
782 784 790 780 770 771 766 766 767 765 766 768 770 769 769 769 769 770 776 782 782 785 786 786 791 790 788 790 793 797 801 805 807 809 812 814 816 818 821 824 827 830 832 834 837 839 841 842 844 846 847 849 850 851 853 854 855 856 857 858 859 860 861 861 862 863 863 864 864 865 866 866 867 867 867 868 868 869 869 869 869 869 869 869 869 869 870 870 871 871 871 871 871 870 870 871 871
779 781 784 774 768 772 769 765 765 764 763 766 768 769 772 766 765 770 774 782 784 780 778 780 786 787 788 791 793 796 800 804 806 808 811 813 815 817 821 823 826 829 831 834 836 839 841 842 844 846 847 848 850 851 853 854 855 856 857 858 859 860 861 862 862 863 863 864 864 865 866 866 867 867 868 868 869 869 869 870 870 870 870 870 870 870 870 870 870 870 871 871 871 871 871 872 872
778 777 774 769 768 774 770 764 765 764 763 765 768 771 770 764 767 770 771 782 783 771 769 772 776 781 785 788 792 795 799 802 804 807 809 812 813 816 820 822 826 829 831 834 836 838 840 842 844 845 847 848 850 851 852 854 855 856 857 858 859 860 861 861 862 863 863 864 865 866 866 867 867 868 868 869 869 869 870 870 870 871 871 870 870 870 870 870 870 870 870 871 871 872 872 873 873
780 775 768 768 767 772 770 764 765 764 765 769 769 766 764 768 773 769 769 778 774 761 762 768 772 777 781 785 790 793 796 799 802 805 808 811 813 815 818 821 824 827 830 832 835 838 840 841 844 845 847 848 850 851 852 853 855 856 857 858 859 860 860 861 862 863 864 864 865 866 866 867 867 868 869 869 869 870 870 870 871 871 870 870 870 869 869 870 870 870 871 872 872 872 873 873 873
781 777 768 768 766 768 767 763 764 763 766 766 762 763 766 774 775 770 772 771 765 760 760 766 772 776 780 784 789 792 795 798 801 804 807 810 813 815 818 821 823 826 829 832 834 836 839 841 843 845 847 848 850 851 852 853 855 855 856 857 858 859 860 861 862 862 864 864 865 866 866 867 868 868 869 869 870 870 870 870 871 871 870 870 870 869 870 870 871 871 871 872 872 872 872 873 873
780 777 769 767 766 765 762 763 764 763 764 761 761 767 768 769 767 771 777 770 763 762 763 767 772 777 781 785 788 792 795 798 800 803 807 810 813 816 818 820 822 825 828 830 833 835 838 840 842 845 846 848 849 851 852 853 854 855 856 857 858 859 860 861 861 862 864 865 865 866 867 867 868 868 869 869 870 870 871 871 871 871 871 870 870 870 870 871 871 871 872 872 872 873 872 872 872
774 773 768 767 767 763 762 764 764 763 761 760 766 770 766 762 764 772 771 767 764 763 767 770 774 779 782 785 787 790 794 796 798 801 805 809 812 815 817 819 821 824 827 829 832 834 837 839 842 844 846 848 849 850 852 853 854 855 856 857 858 859 860 860 861 862 864 865 865 866 867 867 868 868 869 870 870 871 871 871 871 871 871 871 871 871 871 871 871 872 872 872 873 873 872 872 872
765 769 768 767 767 762 763 764 762 762 759 760 767 770 764 759 767 775 765 761 764 766 770 771 775 780 781 784 786 789 792 794 797 800 803 807 810 813 815 818 820 823 826 828 831 833 836 838 841 843 845 847 848 850 851 852 854 855 856 857 858 859 860 860 861 863 864 865 865 866 867 867 868 869 869 870 870 871 871 871 872 871 871 872 872 871 871 872 872 872 872 872 873 873 872 872 872
764 768 770 766 765 762 762 764 762 761 761 758 761 766 762 761 771 771 759 758 763 767 772 773 776 779 780 783 785 788 791 794 797 799 801 804 807 811 813 816 819 822 825 827 829 832 834 837 840 842 844 846 848 849 851 852 853 855 856 857 858 858 859 860 861 863 863 865 865 866 867 868 869 869 870 871 871 871 871 872 872 872 872 872 872 871 872 872 872 872 872 873 873 873 872 872 873
766 768 775 769 764 765 761 760 759 760 762 753 757 772 771 769 772 763 755 758 763 767 772 774 776 778 780 782 784 788 790 793 796 798 800 802 806 809 811 814 817 820 823 826 829 831 833 836 839 841 843 845 847 849 850 852 853 854 856 857 858 858 859 861 861 863 863 865 865 866 867 867 868 869 870 871 871 872 872 872 872 872 872 873 872 872 873 873 873 873 873 873 873 873 872 872 873
770 768 775 773 770 768 756 754 756 758 759 748 760 784 780 771 766 756 753 759 763 769 772 773 775 777 780 781 784 787 788 791 793 796 799 801 805 807 810 813 816 819 822 825 828 830 832 834 837 840 842 843 845 848 849 851 853 854 855 856 858 858 859 861 861 862 863 864 865 866 867 868 868 869 870 871 871 872 872 872 872 872 872 873 873 873 873 873 873 873 873 873 873 873 872 872 873
771 772 774 774 777 768 748 748 755 759 756 745 761 783 776 766 762 753 752 757 763 769 771 772 774 776 778 780 783 786 786 789 791 794 798 800 803 806 809 812 814 818 820 823 826 828 831 833 836 838 840 842 844 847 848 850 852 853 855 856 857 858 859 861 861 862 863 864 865 866 867 868 868 869 869 870 871 872 872 872 872 872 872 873 873 873 873 874 873 873 873 873 873 873 873 873 873
769 777 779 773 774 766 748 744 750 757 754 745 762 782 772 756 754 752 751 755 760 766 769 770 772 774 777 779 781 784 785 786 790 792 796 799 802 804 807 810 813 816 818 821 824 827 830 832 834 837 839 841 843 845 848 849 851 853 855 856 857 858 859 860 861 862 863 864 865 866 867 867 868 869 869 870 871 871 871 872 872 872 873 873 873 873 873 874 874 873 873 873 873 873 873 872 872
768 774 777 769 769 767 757 748 743 748 751 749 759 775 774 758 751 752 751 754 757 762 766 767 770 772 774 777 779 781 783 785 788 790 793 797 800 803 805 809 812 814 817 820 823 826 829 831 833 836 838 840 842 844 846 848 850 852 854 855 856 857 859 860 861 862 863 864 865 866 866 867 868 869 869 870 870 871 871 872 872 872 873 873 873 873 873 873 874 874 873 873 873 873 873 872 872
770 770 770 763 760 763 762 755 743 742 750 755 756 763 769 759 753 754 749 750 755 759 764 765 767 770 771 774 776 779 781 784 785 786 790 794 797 801 804 807 810 813 816 818 821 824 827 829 832 834 837 839 841 843 845 848 849 851 853 855 856 857 858 859 860 861 862 863 864 865 866 867 868 868 869 870 870 871 871 872 872 872 872 873 873 873 873 873 873 874 873 873 873 873 873 873 872
766 769 770 763 758 759 760 756 747 744 751 756 758 762 764 754 752 759 751 746 753 756 758 761 763 767 769 771 774 776 778 780 780 782 787 791 795 799 802 805 809 811 814 817 820 823 825 828 830 833 836 838 840 842 844 847 848 850 852 853 855 856 857 859 860 861 862 863 864 865 865 866 868 868 869 869 870 871 871 872 872 872 872 872 873 873 873 873 873 874 873 873 873 873 873 873 873
758 759 763 763 761 759 753 750 744 744 753 756 755 760 766 762 755 757 751 743 750 753 753 758 761 764 767 769 771 773 775 776 776 779 784 788 792 796 800 803 807 810 812 815 818 821 824 826 829 832 834 836 839 841 843 845 847 849 850 852 854 855 856 858 859 860 861 862 863 864 865 866 867 868 868 869 869 870 871 871 871 872 872 872 873 872 872 873 873 874 873 873 873 873 873 874 874
759 757 759 759 758 757 748 745 741 740 753 756 749 753 761 761 750 743 744 744 749 752 753 757 760 762 764 766 768 769 772 772 773 778 782 786 790 794 798 801 804 808 810 813 816 818 821 824 827 829 832 835 837 839 841 843 845 847 848 850 852 853 855 856 858 859 860 861 862 863 864 865 866 867 868 868 869 869 870 871 871 871 872 872 872 873 873 873 873 873 873 873 873 873 874 874 874
765 763 763 761 758 755 744 741 740 740 753 755 747 752 753 749 744 737 738 746 749 749 752 755 757 759 760 762 765 767 769 769 770 775 779 783 787 791 795 798 801 804 807 810 813 816 819 822 825 827 830 833 835 837 839 841 843 845 846 848 850 852 853 855 856 858 859 860 861 862 863 864 865 866 867 867 868 869 869 870 870 871 871 871 872 872 872 872 873 873 873 873 873 873 874 874 874
768 766 766 765 758 754 747 743 743 743 753 756 749 754 753 744 742 737 735 742 745 743 745 749 752 756 758 759 762 764 767 768 769 772 775 779 783 787 791 794 797 800 804 807 810 813 816 819 822 825 828 830 833 835 837 839 841 843 845 847 848 850 851 853 855 856 858 859 860 860 862 863 864 865 866 867 867 868 869 869 870 870 870 871 871 871 872 872 873 873 873 873 873 873 874 874 874
769 767 768 766 756 758 758 750 749 747 749 753 750 753 753 744 742 739 733 734 738 739 739 741 745 750 753 754 757 760 764 767 768 769 771 775 779 783 787 790 793 797 800 803 807 810 813 816 819 822 825 828 830 833 835 838 840 842 844 846 847 849 851 852 854 855 856 857 859 860 861 862 863 865 865 866 867 867 868 869 869 870 870 870 871 871 872 872 873 873 873 873 873 873 873 874 874
767 764 766 764 756 758 758 751 750 749 748 749 752 762 758 747 747 743 732 731 735 737 738 740 742 744 748 750 753 756 759 762 765 767 768 771 775 778 782 786 790 793 796 799 802 806 809 812 816 819 822 825 828 830 833 836 838 841 843 845 847 848 850 851 852 853 854 856 857 858 859 860 862 863 865 865 866 867 867 868 869 869 869 870 870 871 871 872 873 873 873 873 874 874 874 874 874
766 762 761 760 757 756 756 755 756 762 763 750 753 778 772 747 746 744 734 734 737 736 738 742 742 742 746 749 751 753 754 757 760 762 764 767 771 776 780 783 786 788 791 795 798 802 805 809 812 816 819 822 825 828 831 834 836 838 840 842 844 845 847 849 849 851 852 854 855 857 858 859 861 862 863 864 865 866 867 867 868 868 869 869 870 870 871 871 872 873 873 873 873 874 874 874 874
767 757 754 757 757 758 759 760 762 769 766 743 743 773 774 751 744 739 733 735 737 737 738 739 741 743 745 746 748 749 751 753 756 758 760 763 767 771 775 779 781 784 787 791 795 798 802 806 809 812 816 819 822 825 828 832 834 836 838 839 840 842 844 845 847 849 851 852 854 855 857 858 859 860 862 863 864 865 866 866 867 868 868 868 869 869 870 871 871 872 873 873 873 874 874 874 874
764 749 749 757 759 762 762 762 764 762 755 745 743 759 769 760 743 730 728 735 737 738 740 738 738 741 742 742 743 744 746 748 752 756 757 759 763 765 770 774 777 780 784 788 792 795 798 802 806 809 813 816 819 822 825 828 831 833 836 837 838 840 841 843 845 847 849 851 852 854 855 856 857 859 860 862 863 864 865 866 866 867 867 868 868 869 869 870 870 871 872 873 873 874 874 874 874
757 745 749 755 756 760 759 761 763 757 760 765 754 752 770 768 742 727 728 734 739 739 738 736 735 736 738 739 738 739 741 743 746 750 753 754 758 761 765 769 774 778 781 785 787 791 795 799 803 806 809 813 816 819 822 825 828 831 834 835 836 837 839 841 843 845 847 849 850 852 853 855 856 857 859 860 861 862 863 865 865 866 867 867 868 868 868 869 870 871 871 872 873 873 873 874 874
749 745 752 754 754 756 758 762 763 762 771 774 756 750 767 767 743 733 736 737 740 737 731 730 729 730 733 734 734 735 738 740 742 745 747 750 753 757 762 767 771 775 778 782 785 789 792 796 799 803 806 809 812 815 819 823 826 829 831 832 834 835 837 839 841 843 845 846 848 850 851 853 854 856 857 858 859 861 862 863 864 865 866 866 867 867 868 868 869 870 871 871 872 873 873 873 874
745 748 756 757 756 755 758 759 762 774 778 767 752 746 758 764 745 731 732 732 731 728 726 726 724 725 728 729 730 732 734 737 739 741 743 746 751 755 760 763 767 771 775 779 783 785 788 791 795 799 802 806 809 812 816 820 824 826 828 830 832 833 834 837 839 840 842 844 845 847 849 850 852 854 855 856 858 859 860 862 863 864 865 866 866 866 867 867 868 869 870 870 871 872 872 873 873
747 752 758 764 763 761 766 765 769 786 781 759 747 742 752 762 745 725 719 716 717 720 721 722 722 723 724 725 726 726 729 732 735 739 741 744 748 752 755 759 763 768 772 775 779 782 785 788 791 795 799 802 806 809 813 817 820 823 825 827 829 831 832 834 836 838 839 841 843 845 847 848 850 851 853 854 856 857 859 860 861 863 864 864 865 866 866 867 867 868 869 869 870 871 871 872 873
750 753 759 771 774 776 785 780 776 782 772 751 743 744 751 748 731 720 715 709 710 712 711 712 716 718 719 721 722 722 724 729 732 736 738 741 744 747 750 755 759 764 767 770 774 778 781 784 787 791 794 798 802 806 810 814 817 820 822 824 826 828 830 831 833 835 836 838 840 842 844 845 847 849 851 852 854 855 857 858 860 861 862 863 864 865 865 866 867 867 868 868 869 870 870 871 872
750 752 759 769 774 786 796 785 777 775 761 745 740 744 749 740 722 714 712 708 705 705 705 706 708 712 714 715 717 719 721 725 728 731 734 736 739 742 746 750 754 758 762 766 770 773 777 780 783 786 790 794 798 802 806 810 814 816 819 821 824 826 827 829 830 832 834 836 838 839 841 843 844 846 848 850 852 854 855 856 858 859 860 862 862 863 864 865 866 867 867 868 868 869 869 870 871
744 742 748 756 756 770 781 773 771 770 755 744 743 748 749 741 722 706 703 704 702 703 704 704 706 707 708 710 712 716 718 721 724 726 729 731 733 737 741 745 750 753 757 761 765 769 772 776 779 782 786 790 794 798 803 807 810 813 816 818 821 823 825 827 828 829 831 833 835 837 838 840 842 844 846 848 850 852 853 855 856 857 859 860 861 862 863 864 865 866 867 867 867 868 868 869 870
739 733 744 750 741 744 755 753 748 750 750 744 741 742 734 723 711 700 700 702 700 704 703 704 708 706 707 710 710 713 715 716 719 722 725 726 729 733 736 740 744 748 753 756 760 764 767 771 775 778 782 785 790 794 798 803 806 810 812 815 818 820 822 824 825 827 828 830 832 834 836 837 840 842 843 845 847 849 851 853 854 855 857 858 859 860 861 863 864 864 865 866 867 867 867 868 869
733 737 745 739 727 732 747 751 740 744 758 746 733 736 730 722 717 705 705 707 703 703 703 702 704 704 707 710 708 709 711 712 715 717 719 722 725 729 731 735 738 742 746 750 754 759 762 767 770 774 778 782 786 790 794 799 803 806 809 812 815 817 819 821 823 824 825 827 829 831 833 835 837 839 841 843 845 847 849 850 852 854 855 856 857 859 860 861 862 863 864 865 866 866 867 867 868
728 737 736 728 728 732 741 755 753 756 766 747 730 736 735 736 731 710 705 712 707 703 702 700 700 701 705 705 704 706 705 706 710 711 714 717 719 723 727 730 733 736 740 744 749 754 758 762 766 769 773 777 781 785 790 795 799 802 805 808 811 814 816 818 820 821 823 825 827 828 831 833 835 837 839 841 842 844 846 848 849 851 853 854 855 857 858 859 860 861 862 863 864 865 866 866 866
723 723 717 724 743 746 743 755 759 759 763 750 736 733 728 729 725 709 706 709 704 702 700 699 699 698 700 700 700 702 701 702 705 708 711 713 714 718 721 724 728 732 736 741 745 750 754 758 761 765 769 772 777 781 786 791 794 797 801 804 807 810 812 815 817 819 821 822 824 826 828 830 832 834 836 838 840 842 844 845 847 849 850 852 853 855 856 857 858 859 860 862 863 864 865 865 865
724 722 716 717 730 738 739 744 746 749 755 751 743 737 728 718 708 703 704 700 697 699 697 697 696 693 694 695 696 697 698 699 700 703 706 707 708 711 714 718 722 726 732 736 741 745 748 753 757 761 766 770 774 777 781 786 789 793 796 799 803 806 809 812 814 816 818 819 821 823 825 827 829 831 833 835 837 839 841 842 844 846 848 849 851 852 854 855 856 857 859 860 861 862 863 864 864
729 733 731 724 719 721 728 731 728 734 746 747 746 743 725 703 693 695 697 694 692 693 693 693 691 688 688 689 691 692 693 694 695 697 699 701 703 704 708 714 718 723 729 733 737 740 744 749 753 757 761 765 769 772 776 780 784 788 792 795 798 801 805 808 811 813 815 816 818 820 822 825 826 828 830 832 834 836 838 840 842 843 845 847 848 850 851 853 854 855 856 858 859 860 861 862 863
724 725 727 726 721 722 738 742 726 722 733 735 740 744 721 691 684 689 690 691 689 687 690 690 687 686 684 684 685 686 688 690 690 690 692 694 697 699 704 710 715 720 724 727 731 735 739 743 747 752 756 760 764 767 771 775 779 784 787 790 794 798 801 804 807 809 811 813 816 817 820 822 824 826 827 829 831 833 835 837 839 840 842 844 846 847 849 850 852 853 854 855 857 858 859 860 861